Bormio, Italy 16 day weather forecast

Slopes altitude range 1225 m - 3010m

Number of lifts: 31 Pistes: 98km

In some cases the lift and piste totals shown are for the ski domain (e.g. Three Valleys) rather than individual resort (e.g. Courchevel)

Overview

The 16 day weather forecast is fully updated 4 times every day.

    • Tue 19 MAR 2019
    • Tue 19
    • -17C -6C
    • Wed 20 MAR 2019
    • Wed 20
    • -15C -3C
    • Thu 21 MAR 2019
    • Thu 21
    • -10C 1C
    • Fri 22 MAR 2019
    • Fri 22
    • -6C 3C
    • Sat 23 MAR 2019
    • Sat 23
    • -3C 5C
    • Sun 24 MAR 2019
    • Sun 24
    • -3C 4C
    • Mon 25 MAR 2019
    • Mon 25
    • -5C 1C
    • Tue 26 MAR 2019
    • Tue 26
    • -9C -3C
    • Wed 27 MAR 2019
    • Wed 27
    • -8C -1C
    • Thu 28 MAR 2019
    • Thu 28
    • -6C 0C
    • Fri 29 MAR 2019
    • Fri 29
    • -5C 5C
    • Sat 30 MAR 2019
    • Sat 30
    • -2C 6C
    • Sun 31 MAR 2019
    • Sun 31
    • -2C 5C
    • Mon 01 APR 2019
    • Mon 01
    • -3C 0C
    • Tue 02 APR 2019
    • Tue 02
    • -5C 3C
    • Wed 03 APR 2019
    • Wed 03
    • -3C 6C

Date:

Time Type 0°C level Temp Chill Snow Cloud Speed Gust Dir Press
3:00 0m -17°C -17_6 0cm 54% 6mph 7mph 1027mB
6:00 0m -18°C -18_6 0cm 41% 6mph 7mph 1027mB
9:00 1079m -17°C -17_6 0cm 23% 6mph 7mph 1026mB
12:00 1512m -6°C -6_6 0cm 19% 6mph 6mph 1025mB
15:00 1528m -5°C -5_7 1cm 51% 7mph 8mph 1025mB
18:00 570m -5°C -5_6 1cm 60% 6mph 7mph 1029mB
21:00 54m -15°C -15_5 0cm 8% 5mph 6mph 1032mB
0:00 0m -16°C -16_5 0cm 4% 5mph 6mph 1034mB
3:00 0m -17°C -17_5 0cm 0% 5mph 6mph 1034mB
6:00 3m -17°C -17_4 0cm 0% 4mph 5mph 1035mB
9:00 1508m -15°C -15_4 0cm 0% 4mph 5mph 1033mB
12:00 1980m -3°C -3_4 0cm 0% 4mph 4mph 1032mB
15:00 2090m -2°C -2_4 0cm 0% 4mph 5mph 1031mB
18:00 908m -2°C -2_3 0cm 0% 3mph 4mph 1034mB
21:00 492m -12°C -12_2 0cm 0% 2mph 2mph 1036mB
0:00 418m -13°C -13_1 0cm 0% 1mph 2mph 1036mB
3:00 444m -13°C -13_2 0cm 0% 2mph 2mph 1035mB
6:00 617m -13°C -13_2 0cm 0% 2mph 3mph 1035mB
9:00 2117m -10°C -10_4 0cm 0% 4mph 5mph 1033mB
12:00 2405m 1°C 1_4 0cm 0% 4mph 5mph 1031mB
15:00 2524m 1°C 1_3 0cm 0% 3mph 4mph 1029mB
18:00 1339m 1°C 1_2 0cm 0% 2mph 2mph 1032mB
21:00 1143m -8°C -8_1 0cm 38% 1mph 2mph 1033mB
0:00 1125m -8°C -8_0 0cm 26% 0mph 1mph 1033mB
3:00 1146m -8°C -8_0 0cm 0% 0mph 1mph 1033mB
6:00 1345m -8°C -8_1 0cm 0% 1mph 2mph 1033mB
9:00 2895m -6°C -6_3 0cm 0% 3mph 3mph 1030mB
12:00 2893m 3°C 3_3 0cm 0% 3mph 4mph 1029mB
15:00 2865m 4°C 4_2 0cm 0% 2mph 3mph 1028mB
18:00 1845m 4°C 4_0 0cm 2% 0mph 1mph 1030mB
21:00 1705m -4°C -4_1 0cm 9% 1mph 1mph 1031mB
0:00 1687m -5°C -5_1 0cm 5% 1mph 2mph 1031mB
3:00 1665m -5°C -5_2 0cm 0% 2mph 2mph 1030mB
6:00 1769m -5°C -5_1 0cm 0% 1mph 2mph 1030mB
9:00 3098m -3°C -3_2 0cm 0% 2mph 2mph 1027mB
12:00 2975m 5°C 5_2 0cm 0% 2mph 3mph 1026mB
15:00 2945m 5°C 5_2 0cm 0% 2mph 3mph 1024mB
18:00 2056m 5°C 5_2 0cm 0% 2mph 2mph 1026mB
21:00 1924m -3°C -3_2 0cm 0% 2mph 3mph 1027mB
0:00 1868m -3°C -3_3 0cm 0% 3mph 3mph 1027mB
3:00 1775m -4°C -4_3 0cm 0% 3mph 3mph 1026mB
6:00 1818m -4°C -4_3 0cm 0% 3mph 4mph 1026mB
9:00 2618m -3°C -3_2 0cm 0% 2mph 2mph 1024mB
12:00 2728m 4°C 4_3 0cm 0% 3mph 2mph 1023mB
15:00 2708m 4°C 4_4 0cm 0% 4mph 5mph 1021mB
18:00 2094m 4°C 4_5 0cm 0% 5mph 6mph 1023mB
21:00 1887m -3°C -3_6 0cm 24% 6mph 7mph 1025mB
0:00 1698m -4°C -4_6 0cm 19% 6mph 7mph 1025mB
3:00 1600m -5°C -5_6 0cm 83% 6mph 6mph 1024mB
6:00 1518m -6°C -6_6 0cm 55% 6mph 8mph 1024mB
9:00 2230m -5°C -5_6 0cm 8% 6mph 8mph 1024mB
12:00 2413m 1°C 1_5 0cm 40% 5mph 5mph 1022mB
15:00 2432m 2°C 2_6 0cm 10% 6mph 6mph 1021mB
18:00 1839m 2°C 2_5 0cm 6% 5mph 6mph 1023mB
21:00 1614m -5°C -5_5 0cm 21% 5mph 6mph 1026mB
0:00 1579m -5°C -5_5 0cm 56% 5mph 6mph 1027mB
3:00 1405m -6°C -6_5 0cm 30% 5mph 5mph 1027mB
6:00 1380m -7°C -7_5 0cm 16% 5mph 7mph 1029mB
9:00 1857m -9°C -9_9 0cm 0% 9mph 10mph 1029mB
12:00 2083m -3°C -3_11 0cm 0% 11mph 11mph 1027mB
15:00 2020m -2°C -2_11 0cm 1% 11mph 12mph 1027mB
18:00 1336m -2°C -2_8 0cm 6% 8mph 10mph 1030mB
21:00 1175m -9°C -9_7 0cm 63% 7mph 7mph 1033mB
0:00 1054m -9°C -9_4 0cm 58% 4mph 5mph 1033mB
3:00 1047m -9°C -9_4 0cm 0% 4mph 5mph 1033mB
6:00 1178m -10°C -10_4 0cm 0% 4mph 5mph 1032mB
9:00 2044m -8°C -8_8 0cm 0% 8mph 9mph 1030mB
12:00 2338m -1°C -1_9 0cm 0% 9mph 9mph 1028mB
15:00 2276m -1°C -1_9 0cm 0% 9mph 9mph 1027mB
18:00 1764m -1°C -1_4 0cm 30% 4mph 5mph 1030mB
21:00 1504m -6°C -6_2 0cm 67% 2mph 3mph 1031mB
0:00 1407m -7°C -7_4 0cm 44% 4mph 5mph 1031mB
3:00 1373m -7°C -7_4 0cm 9% 4mph 4mph 1030mB
6:00 1442m -8°C -8_2 0cm 8% 2mph 2mph 1030mB
9:00 2177m -6°C -6_6 0cm 2% 6mph 6mph 1028mB
12:00 2468m 0°C 0_8 0cm 1% 8mph 7mph 1026mB
15:00 2473m 1°C 1_9 0cm 0% 9mph 9mph 1024mB
18:00 1659m 1°C 1_5 0cm 0% 5mph 6mph 1026mB
Morning 0mm 0 1311m -7°C -7_1 0cm 0% 1mph 2mph 1028mB
Afternoon 0mm 0 1716m 5°C 5_5 0cm 0% 5mph 6mph 1024mB
Morning 0mm 0 1732m -5°C -5_5 0cm 3% 5mph 5mph 1024mB
Afternoon 0mm 0 1917m 6°C 6_4 0cm 12% 4mph 5mph 1020mB
Morning 0mm 0 1762m -3°C -3_6 0cm 7% 6mph 8mph 1021mB
Afternoon 0.510417mm 4.875 2216m 5°C 5_7 39cm 92% 7mph 8mph 1019mB
Morning 0.364583mm 1 1870m -2°C -2_7 8cm 100% 7mph 8mph 1022mB
Afternoon 0.21875mm 0.0625 1689m 0°C 0_7 2cm 100% 7mph 10mph 1022mB
Morning 0.00520833mm 0 1343m -7°C -7_1 0cm 42% 1mph 1mph 1025mB
Afternoon 0mm 0 1693m 3°C 3_7 0cm 0% 7mph 8mph 1024mB
Morning 0mm 0 1580m -6°C -6_1 0cm 0% 1mph 1mph 1027mB
Afternoon 0mm 0 1875m 6°C 6_5 0cm 0% 5mph 6mph 1027mB

16 day outlook at a glance

Forecast issued: 18/03/2019 23:31:16

Chat

Your comments and questions. In a resort? Let us know what it's like!


Characters left 250

For terms and conditions see Readers Comments on the Cookie and privacy policy page.